Location: ???????????
(54.6970°N, 39.1477°E)
Time: 03:11:03
(UTC+00:00)

PSLV R/B - Pass Details

Date: 19 May 2025
Orbit: 586 x 683 km, 97.9° (Epoch: 14 June)

Event Time Altitude Azimuth Distance (km) Brightness Sun altitude
Rises 21:00:56 0° 16° (NNE) 2,857 8.3 -15.2°
Reaches altitude 10° 21:03:09 10° 20° (NNE) 1,941 7.2 -15.3°
Maximum altitude 21:07:19 65° 102° (ESE) 652 3.6 -15.3°
Enters shadow 21:09:24 28° 177° (S) 1,116 4.3 -15.3°
